• In Uzbekistan
  • List of Countries
  • For 7 days
  • Water Temperature
  • Satellite Maps
  • Weather Map
  • Weather Widgets
  • user-avatar
    Login

    Hourly Weather Iraklion

    Today, 16 December, Saturday

    Time Temperature Precipitation Wind Pressure Humidity
    00:00 +14°C° 0 mm 4 mps 758 mmHg 81%
    01:00 +14°C° 0 mm 4 mps 757 mmHg 83%
    02:00 +14°C° 0 mm 4 mps 757 mmHg 85%
    03:00 +14°C° 0 mm 4 mps 757 mmHg 85%
    04:00 +14°C° 0 mm 4 mps 757 mmHg 85%
    05:00 +14°C° 0 mm 4 mps 757 mmHg 85%
    06:00 +14°C° 0 mm 4 mps 757 mmHg 84%
    07:00 +14°C° 0 mm 4 mps 757 mmHg 83%
    08:00 +14°C° 0 mm 4 mps 757 mmHg 82%
    09:00 +17°C° 0 mm 4 mps 757 mmHg 78%
    10:00 +17°C° 0 mm 5 mps 757 mmHg 74%
    11:00 +19°C° 0 mm 5 mps 757 mmHg 70%
    12:00 +19°C° 0 mm 5 mps 757 mmHg 69%
    13:00 +19°C° 0 mm 6 mps 756 mmHg 67%
    14:00 +19°C° 0 mm 6 mps 756 mmHg 66%
    15:00 +19°C° 0 mm 6 mps 756 mmHg 67%
    16:00 +17°C° 0 mm 6 mps 755 mmHg 68%
    17:00 +17°C° 0 mm 5 mps 755 mmHg 69%
    18:00 +16°C° 0.5 mm 5 mps 756 mmHg 68%
    19:00 +17°C° 0.5 mm 4 mps 756 mmHg 66%
    20:00 +17°C° 0.5 mm 3 mps 756 mmHg 65%
    21:00 +17°C° 0 mm 4 mps 756 mmHg 67%
    22:00 +15°C° 0 mm 5 mps 756 mmHg 69%
    23:00 +15°C° 0 mm 6 mps 756 mmHg 71%

    Tomorrow, 17 December, Sunday

    Time Temperature Precipitation Wind Pressure Humidity
    00:00 +15°C° 0 mm 6 mps 755 mmHg 74%
    01:00 +15°C° 0 mm 6 mps 755 mmHg 77%
    02:00 +15°C° 0 mm 6 mps 755 mmHg 80%
    03:00 +15°C° 0 mm 6 mps 754 mmHg 81%
    04:00 +15°C° 0 mm 6 mps 754 mmHg 81%
    05:00 +15°C° 0 mm 6 mps 753 mmHg 82%
    06:00 +15°C° 0 mm 6 mps 753 mmHg 82%
    07:00 +15°C° 0 mm 6 mps 753 mmHg 83%
    08:00 +16°C° 0 mm 6 mps 754 mmHg 83%
    09:00 +17°C° 0 mm 5 mps 754 mmHg 78%
    10:00 +19°C° 0 mm 5 mps 754 mmHg 73%
    11:00 +20°C° 0 mm 5 mps 754 mmHg 67%
    12:00 +20°C° 0 mm 5 mps 754 mmHg 68%
    13:00 +20°C° 0 mm 5 mps 754 mmHg 69%
    14:00 +19°C° 0 mm 5 mps 754 mmHg 70%
    15:00 +19°C° 0 mm 5 mps 754 mmHg 73%
    16:00 +17°C° 0 mm 5 mps 754 mmHg 76%
    17:00 +16°C° 0 mm 5 mps 754 mmHg 79%
    18:00 +16°C° 0 mm 5 mps 755 mmHg 80%
    19:00 +15°C° 0 mm 5 mps 755 mmHg 82%
    20:00 +15°C° 0 mm 5 mps 756 mmHg 84%
    21:00 +15°C° 0 mm 5 mps 756 mmHg 84%
    22:00 +15°C° 0 mm 5 mps 756 mmHg 84%
    23:00 +14°C° 0 mm 5 mps 756 mmHg 84%

    Day after tomorrow, 18 December, Monday

    Time Temperature Precipitation Wind Pressure Humidity
    00:00 +14°C° 0 mm 5 mps 757 mmHg 83%
    01:00 +14°C° 0 mm 5 mps 757 mmHg 83%
    02:00 +14°C° 0 mm 5 mps 757 mmHg 82%
    03:00 +14°C° 0 mm 5 mps 757 mmHg 81%
    04:00 +13°C° 0 mm 4 mps 757 mmHg 79%
    05:00 +13°C° 0 mm 4 mps 756 mmHg 78%
    06:00 +13°C° 0 mm 4 mps 757 mmHg 76%
    07:00 +13°C° 0 mm 4 mps 757 mmHg 74%
    08:00 +13°C° 0 mm 4 mps 757 mmHg 72%
    09:00 +14°C° 0 mm 5 mps 758 mmHg 66%
    10:00 +15°C° 0 mm 5 mps 758 mmHg 60%
    11:00 +16°C° 0 mm 5 mps 758 mmHg 54%
    12:00 +16°C° 0 mm 5 mps 758 mmHg 56%
    13:00 +16°C° 0 mm 6 mps 757 mmHg 57%
    14:00 +16°C° 0 mm 6 mps 757 mmHg 58%
    15:00 +15°C° 0 mm 6 mps 757 mmHg 60%
    16:00 +15°C° 0 mm 6 mps 756 mmHg 62%
    17:00 +14°C° 0 mm 5 mps 756 mmHg 65%
    18:00 +14°C° 0 mm 5 mps 757 mmHg 65%
    19:00 +13°C° 0 mm 5 mps 757 mmHg 66%
    20:00 +13°C° 0 mm 5 mps 757 mmHg 66%
    21:00 +13°C° 0 mm 5 mps 757 mmHg 67%
    22:00 +13°C° 0 mm 5 mps 757 mmHg 67%
    23:00 +12°C° 0 mm 5 mps 757 mmHg 68%

    19 December, Tuesday

    Time Temperature Precipitation Wind Pressure Humidity
    00:00 +12°C° 0 mm 5 mps 758 mmHg 68%
    01:00 +12°C° 0 mm 5 mps 758 mmHg 67%
    02:00 +12°C° 0 mm 5 mps 758 mmHg 67%
    03:00 +12°C° 0 mm 5 mps 758 mmHg 69%
    04:00 +10°C° 0 mm 6 mps 758 mmHg 70%
    05:00 +10°C° 0 mm 6 mps 758 mmHg 71%
    06:00 +10°C° 0 mm 6 mps 759 mmHg 71%
    07:00 +10°C° 0 mm 6 mps 759 mmHg 70%
    08:00 +10°C° 0 mm 5 mps 760 mmHg 69%
    09:00 +12°C° 0 mm 5 mps 760 mmHg 62%
    10:00 +13°C° 0 mm 5 mps 760 mmHg 55%
    11:00 +15°C° 0 mm 5 mps 761 mmHg 48%
    12:00 +15°C° 0.1 mm 5 mps 760 mmHg 47%
    13:00 +15°C° 0.1 mm 5 mps 760 mmHg 46%
    14:00 +15°C° 0.1 mm 5 mps 760 mmHg 46%
    15:00 +14°C° 0.1 mm 5 mps 760 mmHg 50%
    16:00 +14°C° 0.1 mm 5 mps 760 mmHg 55%
    17:00 +13°C° 0.1 mm 5 mps 760 mmHg 60%
    18:00 +13°C° 0.2 mm 5 mps 761 mmHg 64%
    19:00 +13°C° 0.2 mm 5 mps 761 mmHg 68%
    20:00 +12°C° 0.2 mm 5 mps 761 mmHg 72%
    21:00 +12°C° 0.1 mm 5 mps 761 mmHg 73%
    22:00 +12°C° 0.1 mm 5 mps 761 mmHg 74%
    23:00 +12°C° 0.1 mm 5 mps 762 mmHg 75%

    20 December, Wednesday

    Time Temperature Precipitation Wind Pressure Humidity
    00:00 +12°C° 0.2 mm 5 mps 762 mmHg 75%
    01:00 +10°C° 0.2 mm 5 mps 762 mmHg 75%
    02:00 +10°C° 0.2 mm 6 mps 762 mmHg 75%
    03:00 +10°C° 0.2 mm 6 mps 761 mmHg 76%
    04:00 +10°C° 0.2 mm 6 mps 761 mmHg 76%
    05:00 +10°C° 0.2 mm 6 mps 761 mmHg 76%
    06:00 +10°C° 0.2 mm 6 mps 762 mmHg 76%
    07:00 +10°C° 0.2 mm 5 mps 762 mmHg 75%
    08:00 +10°C° 0.2 mm 5 mps 762 mmHg 74%
    09:00 +12°C° 0.1 mm 5 mps 763 mmHg 70%
    10:00 +12°C° 0.1 mm 5 mps 763 mmHg 65%
    11:00 +13°C° 0.1 mm 5 mps 763 mmHg 61%
    12:00 +13°C° 0.1 mm 6 mps 763 mmHg 60%
    13:00 +13°C° 0.1 mm 6 mps 762 mmHg 60%
    14:00 +13°C° 0.1 mm 6 mps 762 mmHg 59%
    15:00 +13°C° 0 mm 6 mps 762 mmHg 59%
    16:00 +11°C° 0 mm 6 mps 762 mmHg 60%
    17:00 +10°C° 0 mm 5 mps 762 mmHg 60%
    18:00 +10°C° 0 mm 5 mps 763 mmHg 62%
    19:00 +9°C° 0 mm 5 mps 763 mmHg 63%
    20:00 +9°C° 0 mm 5 mps 763 mmHg 65%
    21:00 +9°C° 0 mm 5 mps 763 mmHg 65%
    22:00 +8°C° 0 mm 4 mps 763 mmHg 66%
    23:00 +8°C° 0 mm 4 mps 763 mmHg 66%

    21 December, Thursday

    Time Temperature Precipitation Wind Pressure Humidity
    00:00 +8°C° 0 mm 4 mps 763 mmHg 66%
    01:00 +8°C° 0 mm 4 mps 763 mmHg 66%
    02:00 +9°C° 0 mm 3 mps 762 mmHg 66%
    03:00 +9°C° 0 mm 3 mps 762 mmHg 66%
    04:00 +9°C° 0 mm 3 mps 762 mmHg 66%
    05:00 +9°C° 0 mm 3 mps 761 mmHg 66%
    06:00 +8°C° 0.2 mm 4 mps 761 mmHg 66%
    07:00 +8°C° 0.2 mm 4 mps 761 mmHg 66%
    08:00 +10°C° 0.2 mm 4 mps 762 mmHg 66%
    09:00 +8°C° 1.5 mm 5 mps 762 mmHg 71%
    10:00 +8°C° 1.5 mm 5 mps 762 mmHg 75%
    11:00 +7°C° 1.5 mm 6 mps 762 mmHg 80%
    12:00 +8°C° 0.7 mm 6 mps 761 mmHg 76%
    13:00 +8°C° 0.7 mm 7 mps 761 mmHg 71%
    14:00 +9°C° 0.7 mm 7 mps 761 mmHg 67%
    15:00 +9°C° 0.1 mm 8 mps 761 mmHg 67%
    16:00 +7°C° 0.1 mm 8 mps 762 mmHg 66%
    17:00 +7°C° 0.1 mm 8 mps 762 mmHg 66%
    18:00 +7°C° 0.3 mm 9 mps 762 mmHg 67%
    19:00 +7°C° 0.3 mm 9 mps 763 mmHg 67%
    20:00 +6°C° 0.3 mm 9 mps 763 mmHg 68%
    21:00 +6°C° 0.1 mm 10 mps 763 mmHg 68%
    22:00 +7°C° 0.1 mm 10 mps 763 mmHg 67%
    23:00 +7°C° 0.1 mm 10 mps 763 mmHg 67%
    Show more